Sedalia, MO

9:20 PM CDT on April 28, 2017 (GMT -0500)
Sedalia Memorial

Weather History for KDMO - June, 2013

Change the Weather History Date:

Monday, June 10, 2013

  Actual Average Record
Temperature  
Mean Temperature 74 °F 74 °F  
Max Temperature 85 °F 84 °F 96 °F (1953)
Min Temperature 63 °F 64 °F 42 °F (1988)
Degree Days  
Heating Degree Days 0 0  
Month to date heating degree days 9 4  
Since 1 June heating degree days 9 4  
Since 1 July heating degree days 4745 4569  
Cooling Degree Days 9 9  
Month to date cooling degree days 26 78  
Year to date cooling degree days 174 217  
Since 1 June cooling degree days 26 78  
Growing Degree Days 22 (Base 50)    
Moisture  
Dew Point 61 °F    
Average Humidity 67    
Maximum Humidity 87    
Minimum Humidity 47    
Precipitation  
Precipitation 0.00 in 0.18 in 2.23 in (2007)
Month to date precipitation 0.40 1.98  
Year to date precipitation 23.40 17.13  
Sea Level Pressure  
Sea Level Pressure 29.86 in    
Wind  
Wind Speed 6 mph (West)    
Max Wind Speed 15 mph    
Max Gust Speed 21 mph    
Visibility 10 miles    
Events      
T = Trace of Precipitation, MM = Missing Value Source: NWS Daily Summary

Daily Weather History Graph

Daily Weather History Graph

Search for Another Location

Airport or City:

Trip Planner

Search our weather history database for the weather conditions in past years. The results will help you decide how hot, cold, wet, or windy it might be!

Date:

Astronomy

Jun. 10, 2013 Rise Set
Actual Time 5:47 AM CDT 8:37 PM CDT
Civil Twilight 5:15 AM CDT 9:08 PM CDT
Nautical Twilight 4:35 AM CDT 9:48 PM CDT
Astronomical Twilight 3:50 AM CDT 10:34 PM CDT
Moon 7:35 AM CDT (6/10) 10:05 PM CDT (6/10)
Length of Visible Light 15h 53m
Length of Day
14h 49m
Waxing Crescent, 4% of the Moon is Illuminated
Jun 10
Waxing Crescent
Jun 16
First Quarter
Jun 23
Full
Jun 29
Last Quarter
Jul 8
New

Hourly Weather History & Observations

Time (CDT) Temp. Heat Index Dew Point Humidity Pressure Visibility Wind Dir Wind Speed Gust Speed Precip Events Conditions
12:53 AM 66.9 °F - 59.0 °F 76% 29.82 in 10.0 mi SW 4.6 mph - N/A   Mostly Cloudy
1:53 AM 64.9 °F - 60.1 °F 84% 29.81 in 10.0 mi SW 6.9 mph - N/A   Partly Cloudy
2:53 AM 64.0 °F - 59.0 °F 84% 29.81 in 10.0 mi SW 6.9 mph - N/A   Partly Cloudy
3:53 AM 66.0 °F - 57.0 °F 73% 29.81 in 10.0 mi West 8.1 mph - N/A   Clear
4:53 AM 63.0 °F - 57.0 °F 81% 29.82 in 10.0 mi WNW 8.1 mph - N/A   Clear
5:53 AM 63.0 °F - 57.0 °F 81% 29.83 in 10.0 mi WNW 6.9 mph - N/A   Clear
6:53 AM 64.9 °F - 57.9 °F 78% 29.84 in 10.0 mi WNW 10.4 mph - N/A   Clear
7:53 AM 66.9 °F - 59.0 °F 76% 29.86 in 10.0 mi WNW 13.8 mph 19.6 mph N/A   Clear
8:53 AM 69.1 °F - 60.1 °F 73% 29.87 in 10.0 mi NW 11.5 mph - N/A   Clear
9:53 AM 71.1 °F - 61.0 °F 70% 29.88 in 10.0 mi NW 9.2 mph - N/A   Clear
10:53 AM 73.9 °F - 61.0 °F 64% 29.89 in 10.0 mi NW 11.5 mph - N/A   Clear
11:53 AM 75.0 °F - 61.0 °F 62% 29.90 in 10.0 mi WNW 4.6 mph - N/A   Partly Cloudy
12:41 PM 75.2 °F - 62.6 °F 65% 29.91 in 10.0 mi WNW 8.1 mph - N/A   Mostly Cloudy
12:53 PM 75.9 °F - 63.0 °F 64% 29.90 in 10.0 mi West 6.9 mph - N/A   Mostly Cloudy
1:08 PM 78.8 °F - 62.6 °F 57% 29.91 in 10.0 mi WNW 9.2 mph - N/A   Scattered Clouds
1:53 PM 79.0 °F - 62.1 °F 56% 29.88 in 10.0 mi Calm Calm - N/A   Clear
2:53 PM 81.0 °F 81.7 °F 61.0 °F 50% 29.88 in 10.0 mi Variable 4.6 mph - N/A   Clear
3:53 PM 81.0 °F 81.9 °F 62.1 °F 52% 29.87 in 10.0 mi Calm Calm - N/A   Clear
4:53 PM 82.9 °F 83.2 °F 60.1 °F 46% 29.87 in 10.0 mi Variable 3.5 mph - N/A   Clear
5:53 PM 82.9 °F 83.3 °F 61.0 °F 47% 29.87 in 10.0 mi NNW 6.9 mph - N/A   Clear
6:53 PM 82.9 °F 83.2 °F 60.1 °F 46% 29.86 in 10.0 mi NW 3.5 mph - N/A   Clear
7:53 PM 79.0 °F - 63.0 °F 58% 29.87 in 10.0 mi Calm Calm - N/A   Clear
8:53 PM 75.0 °F - 64.0 °F 69% 29.86 in 10.0 mi SE 4.6 mph - N/A   Clear
9:53 PM 70.0 °F - 63.0 °F 78% 29.87 in 10.0 mi SSE 6.9 mph - N/A   Clear
10:53 PM 70.0 °F - 63.0 °F 78% 29.88 in 10.0 mi SE 4.6 mph - N/A   Clear
11:53 PM 69.1 °F - 63.0 °F 81% 29.89 in 10.0 mi SSE 8.1 mph - N/A   Clear